Powrót do katalogu

STARLINK-35137

AktywnyŁącznośćVLEO
NORAD 65686·PAYLOAD·🇺🇸 United States

Wystrzelony Sep 21, 2025 z Cape Canaveral Space Force Station

Loading…

Następne Przeloty (najbliższe 24 godziny)

TLE

ŚwieżeSource: CelesTrak SupGP

Epoka: Sep 14, 2026, 21:19 UTC

1 65686C 25212L   26257.88868056 -.00020455  00000+0 -60407-3 0  2578
2 65686  53.1569 173.6488 0001422 107.2278 348.6300 15.34415906    18

Śledź STARLINK-35137 w czasie rzeczywistym z AllMySat

Download on the App Store